Location: Archemont
(49.1579°N, 1.7598°E)
Time: 11:37:37
(UTC+00:00)

Vanguard 3 - Pass Details

Date: 23 April 2024
Orbit: 509 x 3233 km, 33.3° (Epoch: 25 May)

Event Time Altitude Azimuth Distance (km) Brightness Sun altitude
Exits shadow 01:38:54 20° 173° (S) 4,640 10.5 -23.8°
Maximum altitude 01:42:42 22° 155° (SSE) 4,235 10.4 -23.5°
Drops below altitude 10° 01:51:17 10° 112° (ESE) 4,350 11.0 -22.8°
Sets 01:55:12 0° 97° (E) 4,919 11.5 -22.4°
